This is the latest recevied weather packets stored in our database for station/object OK1LPD-6. If no packets are shown the sender has not sent any weather packets the latest 10 day(s).
| Time | Temp. | Humidity | Pressure | Rain* | Wind** | Luminosity | Snow |
|---|---|---|---|---|---|---|---|
| 1787576770 | 23.33° C | 35% | 1021.9 hPa | 0 mm | - | - | - |
| 1787576170 | 23.33° C | 35% | 1021.7 hPa | 0 mm | - | - | - |
| 1787575580 | 22.78° C | 33% | 1021.9 hPa | 0 mm | - | - | - |
| 1787574970 | 22.78° C | 35% | 1022 hPa | 0 mm | - | - | - |
| 1787574369 | 23.33° C | 34% | 1022.1 hPa | 0 mm | - | - | - |
| 1787573784 | 23.33° C | 34% | 1022.2 hPa | 0 mm | - | - | - |
| 1787573169 | 23.33° C | 35% | 1022.2 hPa | 0 mm | - | - | - |
| 1787572570 | 23.89° C | 32% | 1022.4 hPa | 0 mm | - | - | - |
| 1787571987 | 24.44° C | 32% | 1022.3 hPa | 0 mm | - | - | - |
| 1787571370 | 25° C | 32% | 1022.5 hPa | 0 mm | - | - | - |
| 1787570770 | 23.89° C | 35% | 1022.4 hPa | 0 mm | - | - | - |
| 1787570193 | 22.78° C | 35% | 1022.6 hPa | 0 mm | - | - | - |
| 1787569570 | 21.67° C | 40% | 1022.6 hPa | 0 mm | - | - | - |
| 1787568970 | 22.22° C | 40% | 1022.6 hPa | 0 mm | - | - | - |
| 1787568389 | 23.33° C | 36% | 1022.6 hPa | 0 mm | - | - | - |
| 1787567770 | 22.22° C | 35% | 1022.7 hPa | 0 mm | - | - | - |
| 1787567171 | 22.22° C | 39% | 1022.8 hPa | 0 mm | - | - | - |
| 1787566591 | 21.67° C | 39% | 1022.9 hPa | 0 mm | - | - | - |
| 1787565970 | 21.67° C | 38% | 1022.7 hPa | 0 mm | - | - | - |
| 1787565371 | 21.67° C | 40% | 1022.9 hPa | 0 mm | - | - | - |
| 1787564789 | 21.11° C | 40% | 1022.8 hPa | 0 mm | - | - | - |
| 1787564172 | 21.11° C | 40% | 1023.1 hPa | 0 mm | - | - | - |
| 1787563571 | 21.11° C | 41% | 1023 hPa | 0 mm | - | - | - |
| 1787562992 | 21.11° C | 42% | 1023.1 hPa | 0 mm | - | - | - |
| 1787562371 | 20° C | 43% | 1023.2 hPa | 0 mm | - | - | - |
* Rain latest hour (hover to see other rain measurements)
** Current wind speed in m/s (hover to see current wind gust speed)